,,,PA_Meas_PMT16A,,PR_Meas_QMR101_102,,RH_Meas_QMH101,,SR_Meas_QMS101,,TA_Meas_QMH101,,GenWind,,GenWind,
date,time,status,PA,status,PR,status,RH,status,SR,status,TA,status,DirAvg,status,SpdAvg,
2009-05-23, 00:00:04,VALID,1004.1,VALID,0,VALID,81.1255,VALID,0,VALID,25.5551,VALID,6,VALID,0.789844,
2009-05-23, 00:01:04,VALID,1004.11,VALID,0,VALID,81.1637,VALID,0,VALID,25.5551,VALID,352,VALID,0.496484,
2009-05-23, 00:02:04,VALID,1004.12,VALID,0,VALID,81.2628,VALID,0,VALID,25.5551,VALID,330,VALID,0.277344,
2009-05-23, 00:03:04,VALID,1004.11,VALID,0,VALID,81.5146,VALID,0,VALID,25.5142,VALID,249,VALID,0.0210938,
2009-05-23, 00:04:04,VALID,1004.09,VALID,0,VALID,81.6519,VALID,0,VALID,25.4753,VALID,336,VALID,0.598437,
2009-05-23, 00:05:04,VALID,1004.06,VALID,0,VALID,81.5375,VALID,0,VALID,25.4967,VALID,335,VALID,1.11172,
2009-05-23, 00:06:04,VALID,1004.04,VALID,0,VALID,81.423,VALID,0,VALID,25.4967,VALID,356,VALID,0.817187,
2009-05-23, 00:07:04,VALID,1004.02,VALID,0,VALID,81.362,VALID,0,VALID,25.4753,VALID,356,VALID,1.02969,
2009-05-23, 00:08:04,VALID,1004,VALID,0,VALID,81.1484,VALID,0,VALID,25.5357,VALID,350,VALID,1.01914,
2009-05-23, 00:09:04,VALID,1004,VALID,0,VALID,81.0797,VALID,0,VALID,25.5337,VALID,345,VALID,1.01172,
2009-05-23, 00:10:04,VALID,1003.98,VALID,0,VALID,81.2094,VALID,0,VALID,25.5337,VALID,322,VALID,0.133984,
2009-05-23, 00:11:04,VALID,1003.96,VALID,0,VALID,81.2018,VALID,0,VALID,25.5551,VALID,336,VALID,0.579297,
2009-05-23, 00:12:04,VALID,1003.93,VALID,0,VALID,81.2552,VALID,0,VALID,25.5123,VALID,337,VALID,0.835156,
2009-05-23, 00:13:04,VALID,1003.93,VALID,0,VALID,81.1637,VALID,0,VALID,25.4734,VALID,349,VALID,1.20977,
2009-05-23, 00:14:04,VALID,1003.89,VALID,0,VALID,81.1179,VALID,0.100563,VALID,25.5142,VALID,353,VALID,1.00898,
2009-05-23, 00:15:04,VALID,1003.9,VALID,0,VALID,81.2399,VALID,0,VALID,25.5123,VALID,352,VALID,1.02148,
2009-05-23, 00:16:04,VALID,1003.86,VALID,0,VALID,81.2781,VALID,0,VALID,25.5142,VALID,356,VALID,1.30977,
2009-05-23, 00:17:04,VALID,1003.87,VALID,0,VALID,81.2018,VALID,0,VALID,25.4928,VALID,337,VALID,0.866797,
2009-05-23, 00:18:04,VALID,1003.85,VALID,0,VALID,81.3391,VALID,0,VALID,25.4948,VALID,317,VALID,0.439453,
2009-05-23, 00:19:04,VALID,1003.83,VALID,0,VALID,81.2171,VALID,0,VALID,25.4734,VALID,344,VALID,0.958594,
2009-05-23, 00:20:04,VALID,1003.85,VALID,0,VALID,81.4154,VALID,0,VALID,25.4948,VALID,353,VALID,0.4,
2009-05-23, 00:21:04,VALID,1003.84,VALID,0,VALID,81.4307,VALID,0,VALID,25.4753,VALID,336,VALID,0.337891,
2009-05-23, 00:22:04,VALID,1003.82,VALID,0,VALID,81.4154,VALID,0,VALID,25.4558,VALID,302,VALID,0.338672,
2009-05-23, 00:23:04,VALID,1003.79,VALID,0,VALID,81.5146,VALID,0,VALID,25.4558,VALID,307,VALID,0.521484,
2009-05-23, 00:24:04,VALID,1003.81,VALID,0,VALID,81.6367,VALID,0,VALID,25.3955,VALID,356,VALID,0.189453,
2009-05-23, 00:25:04,VALID,1003.77,VALID,0,VALID,81.5146,VALID,0,VALID,25.4169,VALID,350,VALID,0.732031,
2009-05-23, 00:26:04,VALID,1003.76,VALID,0,VALID,81.4917,VALID,0,VALID,25.4363,VALID,274,VALID,1.17852,
2009-05-23, 00:27:04,VALID,1003.74,VALID,0,VALID,81.4612,VALID,0,VALID,25.4558,VALID,268,VALID,0.269531,
2009-05-23, 00:28:04,VALID,1003.75,VALID,0,VALID,81.3239,VALID,0,VALID,25.4344,VALID,351,VALID,0.691797,
2009-05-23, 00:29:04,VALID,1003.69,VALID,0,VALID,81.4841,VALID,0,VALID,25.4558,VALID,339,VALID,0.238672,
2009-05-23, 00:30:04,VALID,1003.68,VALID,0,VALID,81.4307,VALID,0,VALID,25.4344,VALID,280,VALID,0.457031,
2009-05-23, 00:31:04,VALID,1003.67,VALID,0,VALID,81.0874,VALID,0,VALID,25.4363,VALID,310,VALID,0.579687,
2009-05-23, 00:32:04,VALID,1003.67,VALID,0,VALID,81.0263,VALID,0.100563,VALID,25.4539,VALID,283,VALID,0.741406,
2009-05-23, 00:33:04,VALID,1003.67,VALID,0,VALID,80.8509,VALID,0,VALID,25.4539,VALID,309,VALID,1.15156,
2009-05-23, 00:34:04,VALID,1003.68,VALID,0,VALID,80.7212,VALID,0,VALID,25.4539,VALID,295,VALID,1.21328,
2009-05-23, 00:35:04,VALID,1003.64,VALID,0,VALID,80.767,VALID,0,VALID,25.4948,VALID,359,VALID,0.550781,
2009-05-23, 00:36:04,VALID,1003.64,VALID,0,VALID,80.767,VALID,0,VALID,25.4948,VALID,272,VALID,0.95625,
2009-05-23, 00:37:04,VALID,1003.65,VALID,0,VALID,80.6296,VALID,0,VALID,25.4539,VALID,347,VALID,0.506641,
2009-05-23, 00:38:04,VALID,1003.63,VALID,0,VALID,80.4923,VALID,0,VALID,25.4558,VALID,349,VALID,1.36289,
2009-05-23, 00:39:04,VALID,1003.62,VALID,0,VALID,80.8814,VALID,0,VALID,25.4344,VALID,2,VALID,0.819922,
2009-05-23, 00:40:04,VALID,1003.63,VALID,0,VALID,80.6754,VALID,0,VALID,25.4363,VALID,353,VALID,1.06602,
2009-05-23, 00:41:04,VALID,1003.6,VALID,0,VALID,80.7593,VALID,0,VALID,25.4169,VALID,6,VALID,1.48555,
2009-05-23, 00:42:04,VALID,1003.57,VALID,0,VALID,80.6678,VALID,0,VALID,25.3974,VALID,342,VALID,1.26211,
2009-05-23, 00:43:04,VALID,1003.54,VALID,0,VALID,80.6296,VALID,0,VALID,25.3779,VALID,352,VALID,0.844922,
2009-05-23, 00:44:04,VALID,1003.56,VALID,0,VALID,80.8051,VALID,0,VALID,25.3565,VALID,354,VALID,0.782422,
2009-05-23, 00:45:04,VALID,1003.57,VALID,0,VALID,80.6449,VALID,0,VALID,25.2981,VALID,351,VALID,1.06016,
2009-05-23, 00:46:04,VALID,1003.52,VALID,0,VALID,80.6296,VALID,0,VALID,25.3195,VALID,347,VALID,1.16797,
2009-05-23, 00:47:04,VALID,1003.52,VALID,0,VALID,80.622,VALID,0,VALID,25.339,VALID,350,VALID,0.781641,
2009-05-23, 00:48:04,VALID,1003.49,VALID,0,VALID,80.622,VALID,0,VALID,25.339,VALID,342,VALID,0.998047,
2009-05-23, 00:49:04,VALID,1003.49,VALID,0,VALID,80.4999,VALID,0,VALID,25.339,VALID,325,VALID,1.09883,
2009-05-23, 00:50:04,VALID,1003.45,VALID,0,VALID,80.6296,VALID,0,VALID,25.339,VALID,325,VALID,0.433203,
2009-05-23, 00:51:04,VALID,1003.44,VALID,0,VALID,80.5533,VALID,0,VALID,25.339,VALID,340,VALID,0.389844,
2009-05-23, 00:52:04,VALID,1003.44,VALID,0,VALID,80.5762,VALID,0,VALID,25.339,VALID,359,VALID,0.667578,
2009-05-23, 00:53:04,VALID,1003.41,VALID,0,VALID,80.4389,VALID,0,VALID,25.3176,VALID,337,VALID,0.732422,
2009-05-23, 00:54:04,VALID,1003.36,VALID,0,VALID,80.294,VALID,0,VALID,25.339,VALID,317,VALID,0.442578,
2009-05-23, 00:55:04,VALID,1003.35,VALID,0,VALID,80.088,VALID,0,VALID,25.3584,VALID,2,VALID,0.892578,
2009-05-23, 00:56:04,VALID,1003.33,VALID,0,VALID,80.1261,VALID,0,VALID,25.3565,VALID,4,VALID,0.471484,
2009-05-23, 00:57:04,VALID,1003.31,VALID,0,VALID,80.1261,VALID,0,VALID,25.4188,VALID,313,VALID,1.11367,
2009-05-23, 00:58:04,VALID,1003.31,VALID,0,VALID,80.0727,VALID,0,VALID,25.376,VALID,350,VALID,0.567187,
2009-05-23, 00:59:04,VALID,1003.28,VALID,0,VALID,79.9812,VALID,0,VALID,25.3974,VALID,350,VALID,0.832812,
2009-05-23, 01:00:04,VALID,1003.26,VALID,0,VALID,79.9964,VALID,0.100563,VALID,25.3974,VALID,335,VALID,0.7625,
2009-05-23, 01:01:04,VALID,1003.26,VALID,0,VALID,79.8362,VALID,0,VALID,25.3565,VALID,1,VALID,1.24492,
2009-05-23, 01:02:04,VALID,1003.24,VALID,0,VALID,80.027,VALID,0,VALID,25.3974,VALID,4,VALID,0.957812,
2009-05-23, 01:03:04,VALID,1003.24,VALID,0,VALID,79.7981,VALID,0,VALID,25.3974,VALID,354,VALID,0.871484,
2009-05-23, 01:04:04,VALID,1003.26,VALID,0,VALID,79.5616,VALID,0,VALID,25.4363,VALID,356,VALID,1.53711,
2009-05-23, 01:05:04,VALID,1003.24,VALID,0,VALID,79.409,VALID,0,VALID,25.4558,VALID,355,VALID,1.00234,
2009-05-23, 01:06:04,VALID,1003.21,VALID,0,VALID,79.2564,VALID,0,VALID,25.4363,VALID,352,VALID,0.595312,
2009-05-23, 01:07:04,VALID,1003.24,VALID,0,VALID,79.0581,VALID,0,VALID,25.4753,VALID,354,VALID,1.06875,
2009-05-23, 01:08:04,VALID,1003.22,VALID,0,VALID,79.1115,VALID,0,VALID,25.4539,VALID,344,VALID,0.590625,
2009-05-23, 01:09:04,VALID,1003.23,VALID,0,VALID,78.4325,VALID,0,VALID,25.5142,VALID,334,VALID,1.04805,
2009-05-23, 01:10:04,VALID,1003.19,VALID,0,VALID,77.8985,VALID,0,VALID,25.5123,VALID,349,VALID,1.27344,
2009-05-23, 01:11:04,VALID,1003.18,VALID,0,VALID,77.3721,VALID,0,VALID,25.5707,VALID,336,VALID,1.14297,
2009-05-23, 01:12:04,VALID,1003.19,VALID,0,VALID,77.7688,VALID,0,VALID,25.6311,VALID,317,VALID,0.547656,
2009-05-23, 01:13:04,VALID,1003.14,VALID,0,VALID,77.807,VALID,0,VALID,25.6097,VALID,5,VALID,0.474609,
2009-05-23, 01:14:04,VALID,1003.18,VALID,0,VALID,77.6544,VALID,0,VALID,25.6506,VALID,355,VALID,1.33398,
2009-05-23, 01:15:04,VALID,1003.17,VALID,0,VALID,77.8527,VALID,0,VALID,25.6311,VALID,351,VALID,0.699219,
2009-05-23, 01:16:04,VALID,1003.13,VALID,0,VALID,77.7993,VALID,0,VALID,25.5902,VALID,327,VALID,0.688281,
2009-05-23, 01:17:04,VALID,1003.09,VALID,0,VALID,77.6544,VALID,0,VALID,25.6116,VALID,349,VALID,1.15117,
2009-05-23, 01:18:04,VALID,1003.12,VALID,0,VALID,77.5018,VALID,0,VALID,25.5707,VALID,348,VALID,0.608203,
2009-05-23, 01:19:04,VALID,1003.12,VALID,0,VALID,77.7688,VALID,0,VALID,25.5921,VALID,357,VALID,0.965234,
2009-05-23, 01:20:04,VALID,1003.11,VALID,0,VALID,77.5705,VALID,0,VALID,25.5921,VALID,337,VALID,1.38789,
2009-05-23, 01:21:04,VALID,1003.1,VALID,0,VALID,77.5476,VALID,0,VALID,25.6097,VALID,339,VALID,1.48867,
2009-05-23, 01:22:04,VALID,1003.11,VALID,0,VALID,77.6773,VALID,0,VALID,25.6097,VALID,359,VALID,1.1,
2009-05-23, 01:23:04,VALID,1003.09,VALID,0,VALID,77.3034,VALID,0,VALID,25.6097,VALID,330,VALID,1.11406,
2009-05-23, 01:24:04,VALID,1003.08,VALID,0,VALID,77.3263,VALID,0,VALID,25.6311,VALID,352,VALID,0.835938,
2009-05-23, 01:25:04,VALID,1003.06,VALID,0,VALID,77.1356,VALID,0,VALID,25.6292,VALID,350,VALID,1.27813,
2009-05-23, 01:26:04,VALID,1003.05,VALID,0,VALID,77.3263,VALID,0.100563,VALID,25.6292,VALID,1,VALID,1.0418,
2009-05-23, 01:27:04,VALID,1003.02,VALID,0,VALID,77.2424,VALID,0,VALID,25.67,VALID,352,VALID,1.32266,
2009-05-23, 01:28:04,VALID,1003.05,VALID,0,VALID,77.3645,VALID,0.100563,VALID,25.6895,VALID,355,VALID,0.868359,
2009-05-23, 01:29:04,VALID,1003.03,VALID,0,VALID,77.4102,VALID,0,VALID,25.67,VALID,342,VALID,1.06289,
2009-05-23, 01:30:04,VALID,1003.01,VALID,0,VALID,77.601,VALID,0,VALID,25.67,VALID,353,VALID,0.757422,
2009-05-23, 01:31:04,VALID,1003.03,VALID,0,VALID,77.6467,VALID,0.100563,VALID,25.6292,VALID,349,VALID,1.62148,
2009-05-23, 01:32:04,VALID,1003.01,VALID,0,VALID,77.8222,VALID,0,VALID,25.6486,VALID,344,VALID,0.889453,
2009-05-23, 01:33:04,VALID,1003.01,VALID,0,VALID,77.9595,VALID,0,VALID,25.6292,VALID,345,VALID,1.09609,
2009-05-23, 01:34:04,VALID,1003.01,VALID,0,VALID,78.196,VALID,0,VALID,25.6292,VALID,349,VALID,1.10391,
2009-05-23, 01:35:04,VALID,1003.04,VALID,0,VALID,78.5775,VALID,0,VALID,25.6292,VALID,357,VALID,1.14336,
2009-05-23, 01:36:04,VALID,1003.02,VALID,0,VALID,78.6614,VALID,0,VALID,25.5902,VALID,332,VALID,0.676562,
2009-05-23, 01:37:04,VALID,1002.99,VALID,0,VALID,78.7377,VALID,0.100563,VALID,25.5707,VALID,340,VALID,0.724219,
2009-05-23, 01:38:04,VALID,1003,VALID,0,VALID,78.9437,VALID,0,VALID,25.5513,VALID,357,VALID,0.775781,
2009-05-23, 01:39:04,VALID,1002.96,VALID,0,VALID,78.8826,VALID,0,VALID,25.5532,VALID,347,VALID,0.999219,
2009-05-23, 01:40:04,VALID,1002.94,VALID,0,VALID,79.0047,VALID,0,VALID,25.5123,VALID,338,VALID,1.03516,
2009-05-23, 01:41:04,VALID,1002.93,VALID,0,VALID,79.3022,VALID,0,VALID,25.4948,VALID,359,VALID,0.697656,
2009-05-23, 01:42:04,VALID,1002.93,VALID,0,VALID,79.2946,VALID,0,VALID,25.4344,VALID,360,VALID,0.894141,
2009-05-23, 01:43:04,VALID,1002.9,VALID,0,VALID,79.2412,VALID,0,VALID,25.4149,VALID,340,VALID,0.858203,
2009-05-23, 01:44:04,VALID,1002.89,VALID,0,VALID,79.4777,VALID,0.100563,VALID,25.3955,VALID,358,VALID,0.254687,
2009-05-23, 01:45:04,VALID,1002.92,VALID,0,VALID,79.4853,VALID,0,VALID,25.3779,VALID,344,VALID,0.205859,
2009-05-23, 01:46:04,VALID,1002.91,VALID,0,VALID,79.2564,VALID,0,VALID,25.3565,VALID,349,VALID,0.598047,
2009-05-23, 01:47:04,VALID,1002.93,VALID,0,VALID,79.3861,VALID,0,VALID,25.3176,VALID,360,VALID,0.785547,
2009-05-23, 01:48:04,VALID,1002.92,VALID,0,VALID,79.4243,VALID,0,VALID,25.339,VALID,338,VALID,0.591797,
2009-05-23, 01:49:04,VALID,1002.93,VALID,0,VALID,79.3175,VALID,0,VALID,25.2981,VALID,341,VALID,0.5875,
2009-05-23, 01:50:04,VALID,1002.92,VALID,0,VALID,78.6538,VALID,0,VALID,25.2981,VALID,1,VALID,0.687891,
2009-05-23, 01:51:04,VALID,1002.91,VALID,0,VALID,78.4554,VALID,0.100563,VALID,25.339,VALID,350,VALID,0.919531,
2009-05-23, 01:52:04,VALID,1002.93,VALID,0,VALID,78.0434,VALID,0,VALID,25.3546,VALID,358,VALID,1.06055,
2009-05-23, 01:53:04,VALID,1002.96,VALID,0,VALID,78.2952,VALID,0.100563,VALID,25.4149,VALID,2,VALID,0.328906,
2009-05-23, 01:54:04,VALID,1002.9,VALID,0,VALID,77.662,VALID,0,VALID,25.4734,VALID,6,VALID,0.603516,
2009-05-23, 01:55:04,VALID,1002.93,VALID,0,VALID,77.807,VALID,0,VALID,25.5142,VALID,6,VALID,0.230078,
2009-05-23, 01:56:04,VALID,1002.92,VALID,0,VALID,77.662,VALID,0,VALID,25.5142,VALID,351,VALID,0.871094,
2009-05-23, 01:57:04,VALID,1002.92,VALID,0,VALID,77.7764,VALID,0,VALID,25.4928,VALID,350,VALID,0.553906,
2009-05-23, 01:58:04,VALID,1002.91,VALID,0,VALID,77.395,VALID,0.100563,VALID,25.5318,VALID,326,VALID,0.653906,
2009-05-23, 01:59:04,VALID,1002.9,VALID,0,VALID,77.5247,VALID,0.100563,VALID,25.5318,VALID,346,VALID,0.592578,
2009-05-23, 02:00:04,VALID,1002.87,VALID,0,VALID,77.6925,VALID,0,VALID,25.5123,VALID,348,VALID,0.593359,
2009-05-23, 02:01:04,VALID,1002.88,VALID,0,VALID,77.9366,VALID,0,VALID,25.5142,VALID,8,VALID,1.07227,
2009-05-23, 02:02:04,VALID,1002.89,VALID,0,VALID,77.8604,VALID,0,VALID,25.4928,VALID,356,VALID,1.03242,
2009-05-23, 02:03:04,VALID,1002.88,VALID,0,VALID,78.0282,VALID,0,VALID,25.5142,VALID,358,VALID,0.850781,
2009-05-23, 02:04:04,VALID,1002.89,VALID,0,VALID,78.1197,VALID,0,VALID,25.4539,VALID,354,VALID,1.15547,
2009-05-23, 02:05:04,VALID,1002.89,VALID,0,VALID,78.2723,VALID,0,VALID,25.4344,VALID,7,VALID,0.862109,
2009-05-23, 02:06:04,VALID,1002.9,VALID,0,VALID,78.3944,VALID,0,VALID,25.4753,VALID,334,VALID,0.650781,
2009-05-23, 02:07:04,VALID,1002.89,VALID,0,VALID,78.5698,VALID,0,VALID,25.4558,VALID,344,VALID,0.655469,
2009-05-23, 02:08:04,VALID,1002.89,VALID,0,VALID,78.9055,VALID,0,VALID,25.4363,VALID,350,VALID,1.08633,
2009-05-23, 02:09:04,VALID,1002.9,VALID,0,VALID,79.3098,VALID,0,VALID,25.4149,VALID,357,VALID,0.701953,
2009-05-23, 02:10:04,VALID,1002.87,VALID,0,VALID,79.4777,VALID,0,VALID,25.4169,VALID,353,VALID,0.887891,
2009-05-23, 02:11:04,VALID,1002.86,VALID,0,VALID,79.5616,VALID,0,VALID,25.4169,VALID,352,VALID,0.804688,
2009-05-23, 02:12:04,VALID,1002.85,VALID,0,VALID,79.6608,VALID,0,VALID,25.3955,VALID,345,VALID,0.821484,
2009-05-23, 02:13:04,VALID,1002.84,VALID,0,VALID,79.8744,VALID,0,VALID,25.3955,VALID,359,VALID,0.883203,
2009-05-23, 02:14:04,VALID,1002.82,VALID,0,VALID,79.9278,VALID,0,VALID,25.4169,VALID,3,VALID,0.80625,
2009-05-23, 02:15:04,VALID,1002.85,VALID,0,VALID,80.0193,VALID,0,VALID,25.376,VALID,2,VALID,0.514844,
2009-05-23, 02:16:04,VALID,1002.82,VALID,0,VALID,80.0193,VALID,0,VALID,25.337,VALID,358,VALID,1.00039,
2009-05-23, 02:17:04,VALID,1002.82,VALID,0,VALID,79.9278,VALID,0,VALID,25.3176,VALID,346,VALID,1.0043,
2009-05-23, 02:18:04,VALID,1002.78,VALID,0,VALID,79.821,VALID,0,VALID,25.3974,VALID,356,VALID,0.761328,
2009-05-23, 02:19:04,VALID,1002.81,VALID,0,VALID,79.8439,VALID,0,VALID,25.4169,VALID,356,VALID,0.373828,
2009-05-23, 02:20:04,VALID,1002.82,VALID,0,VALID,79.8896,VALID,0,VALID,25.376,VALID,344,VALID,0.562109,
2009-05-23, 02:21:04,VALID,1002.78,VALID,0,VALID,79.6837,VALID,0,VALID,25.376,VALID,353,VALID,0.757813,
2009-05-23, 02:22:04,VALID,1002.79,VALID,0,VALID,79.5997,VALID,0,VALID,25.3974,VALID,351,VALID,0.737109,
2009-05-23, 02:23:04,VALID,1002.77,VALID,0,VALID,79.3251,VALID,0,VALID,25.3955,VALID,343,VALID,0.916016,
2009-05-23, 02:24:04,VALID,1002.76,VALID,0,VALID,79.1649,VALID,0,VALID,25.4149,VALID,347,VALID,0.840625,
2009-05-23, 02:25:04,VALID,1002.78,VALID,0,VALID,79.0199,VALID,0,VALID,25.4753,VALID,360,VALID,0.676953,
2009-05-23, 02:26:04,VALID,1002.73,VALID,0,VALID,78.9208,VALID,0,VALID,25.5123,VALID,339,VALID,0.691406,
2009-05-23, 02:27:04,VALID,1002.71,VALID,0,VALID,78.7224,VALID,0,VALID,25.5513,VALID,335,VALID,0.71875,
2009-05-23, 02:28:04,VALID,1002.67,VALID,0,VALID,78.4173,VALID,0,VALID,25.5902,VALID,346,VALID,1.03203,
2009-05-23, 02:29:04,VALID,1002.68,VALID,0,VALID,78.6004,VALID,0,VALID,25.6292,VALID,274,VALID,0.489453,
2009-05-23, 02:30:04,VALID,1002.66,VALID,0,VALID,78.5317,VALID,0,VALID,25.6486,VALID,352,VALID,1.08477,
2009-05-23, 02:31:04,VALID,1002.67,VALID,0,VALID,78.5393,VALID,0,VALID,25.6486,VALID,358,VALID,1.01484,
2009-05-23, 02:32:04,VALID,1002.62,VALID,0,VALID,78.6232,VALID,0,VALID,25.6292,VALID,6,VALID,0.7375,
2009-05-23, 02:33:04,VALID,1002.65,VALID,0,VALID,78.4249,VALID,0,VALID,25.6097,VALID,341,VALID,1.14961,
2009-05-23, 02:34:04,VALID,1002.62,VALID,0,VALID,78.6004,VALID,0,VALID,25.6292,VALID,349,VALID,0.54375,
2009-05-23, 02:35:04,VALID,1002.62,VALID,0,VALID,78.6461,VALID,0.100563,VALID,25.6506,VALID,345,VALID,0.78125,
2009-05-23, 02:36:04,VALID,1002.61,VALID,0,VALID,78.8216,VALID,0,VALID,25.6311,VALID,324,VALID,0.616797,
2009-05-23, 02:37:04,VALID,1002.62,VALID,0,VALID,78.7224,VALID,0,VALID,25.6097,VALID,324,VALID,0.584766,
2009-05-23, 02:38:04,VALID,1002.57,VALID,0,VALID,78.7911,VALID,0,VALID,25.6116,VALID,349,VALID,1.10078,
2009-05-23, 02:39:04,VALID,1002.59,VALID,0,VALID,78.7682,VALID,0,VALID,25.6116,VALID,346,VALID,1.65664,
2009-05-23, 02:40:04,VALID,1002.56,VALID,0,VALID,78.9131,VALID,0,VALID,25.5921,VALID,343,VALID,1.34922,
2009-05-23, 02:41:04,VALID,1002.54,VALID,0,VALID,79.1496,VALID,0,VALID,25.5921,VALID,351,VALID,0.914453,
2009-05-23, 02:42:04,VALID,1002.52,VALID,0,VALID,79.203,VALID,0.100563,VALID,25.5532,VALID,354,VALID,1.12852,
2009-05-23, 02:43:04,VALID,1002.51,VALID,0,VALID,79.3632,VALID,0,VALID,25.5532,VALID,2,VALID,1.7293,
2009-05-23, 02:44:04,VALID,1002.51,VALID,0,VALID,79.5311,VALID,0,VALID,25.5142,VALID,357,VALID,1.22031,
2009-05-23, 02:45:04,VALID,1002.47,VALID,0,VALID,79.6913,VALID,0,VALID,25.5142,VALID,308,VALID,0.380078,
2009-05-23, 02:46:04,VALID,1002.5,VALID,0,VALID,79.6837,VALID,0,VALID,25.4948,VALID,346,VALID,1.07852,
2009-05-23, 02:47:04,VALID,1002.46,VALID,0,VALID,79.8439,VALID,0,VALID,25.4753,VALID,337,VALID,1.27461,
2009-05-23, 02:48:04,VALID,1002.45,VALID,0,VALID,79.8973,VALID,0,VALID,25.4344,VALID,339,VALID,0.704687,
2009-05-23, 02:49:04,VALID,1002.45,VALID,0,VALID,79.9125,VALID,0,VALID,25.4558,VALID,359,VALID,0.441016,
2009-05-23, 02:50:04,VALID,1002.44,VALID,0,VALID,80.0498,VALID,0,VALID,25.4577,VALID,7,VALID,0.930078,
2009-05-23, 02:51:04,VALID,1002.42,VALID,0,VALID,79.7981,VALID,0,VALID,25.4558,VALID,355,VALID,1.47695,
2009-05-23, 02:52:04,VALID,1002.41,VALID,0,VALID,79.8439,VALID,0,VALID,25.4753,VALID,2,VALID,0.959766,
2009-05-23, 02:53:04,VALID,1002.4,VALID,0,VALID,79.7905,VALID,0,VALID,25.4539,VALID,354,VALID,1.48047,
2009-05-23, 02:54:04,VALID,1002.43,VALID,0,VALID,79.6608,VALID,0.100563,VALID,25.4734,VALID,342,VALID,1.59844,
2009-05-23, 02:55:04,VALID,1002.39,VALID,0,VALID,79.5463,VALID,0,VALID,25.4734,VALID,355,VALID,1.07852,
2009-05-23, 02:56:04,VALID,1002.37,VALID,0,VALID,79.5006,VALID,0,VALID,25.4948,VALID,3,VALID,1.72305,
2009-05-23, 02:57:04,VALID,1002.34,VALID,0,VALID,79.5006,VALID,0,VALID,25.4948,VALID,3,VALID,1.12031,
2009-05-23, 02:58:04,VALID,1002.34,VALID,0,VALID,79.3404,VALID,0,VALID,25.4753,VALID,341,VALID,1.32305,
2009-05-23, 02:59:04,VALID,1002.3,VALID,0,VALID,79.1649,VALID,0,VALID,25.4753,VALID,359,VALID,1.55078,
2009-05-23, 03:00:04,VALID,1002.33,VALID,0,VALID,79.0733,VALID,0,VALID,25.4948,VALID,319,VALID,1.21914,
2009-05-23, 03:01:04,VALID,1002.3,VALID,0,VALID,79.1725,VALID,0,VALID,25.4948,VALID,348,VALID,0.894922,
2009-05-23, 03:02:04,VALID,1002.31,VALID,0,VALID,79.1344,VALID,0,VALID,25.4928,VALID,341,VALID,0.864062,
2009-05-23, 03:03:04,VALID,1002.3,VALID,0,VALID,79.2564,VALID,0,VALID,25.4539,VALID,349,VALID,0.826172,
2009-05-23, 03:04:04,VALID,1002.27,VALID,0,VALID,79.0962,VALID,0,VALID,25.4753,VALID,354,VALID,1.51719,
2009-05-23, 03:05:04,VALID,1002.24,VALID,0,VALID,79.0886,VALID,0,VALID,25.4539,VALID,1,VALID,0.814844,
2009-05-23, 03:06:04,VALID,1002.26,VALID,0,VALID,79.203,VALID,0,VALID,25.4948,VALID,3,VALID,0.94375,
2009-05-23, 03:07:04,VALID,1002.28,VALID,0,VALID,79.3632,VALID,0,VALID,25.4753,VALID,5,VALID,0.812891,
2009-05-23, 03:08:04,VALID,1002.27,VALID,0,VALID,79.3251,VALID,0,VALID,25.4539,VALID,6,VALID,0.960938,
2009-05-23, 03:09:04,VALID,1002.29,VALID,0,VALID,79.3327,VALID,0,VALID,25.4539,VALID,329,VALID,0.417578,
2009-05-23, 03:10:04,VALID,1002.3,VALID,0,VALID,79.3556,VALID,0,VALID,25.4344,VALID,349,VALID,0.520703,
2009-05-23, 03:11:04,VALID,1002.29,VALID,0,VALID,79.6303,VALID,0.100563,VALID,25.4344,VALID,360,VALID,0.205078,
2009-05-23, 03:12:04,VALID,1002.3,VALID,0,VALID,79.5311,VALID,0,VALID,25.4169,VALID,352,VALID,1.0418,
2009-05-23, 03:13:04,VALID,1002.31,VALID,0,VALID,79.6531,VALID,0,VALID,25.4363,VALID,343,VALID,0.727734,
2009-05-23, 03:14:04,VALID,1002.29,VALID,0,VALID,79.7218,VALID,0,VALID,25.376,VALID,300,VALID,0.392188,
2009-05-23, 03:15:04,VALID,1002.32,VALID,0,VALID,79.7294,VALID,0,VALID,25.3974,VALID,287,VALID,0.675,
2009-05-23, 03:16:04,VALID,1002.32,VALID,0,VALID,79.8668,VALID,0,VALID,25.376,VALID,286,VALID,0.653125,
2009-05-23, 03:17:04,VALID,1002.31,VALID,0,VALID,79.7142,VALID,0,VALID,25.3974,VALID,306,VALID,0.603516,
2009-05-23, 03:18:04,VALID,1002.32,VALID,0,VALID,79.7447,VALID,0,VALID,25.3565,VALID,349,VALID,1.11523,
2009-05-23, 03:19:04,VALID,1002.33,VALID,0,VALID,79.9812,VALID,0,VALID,25.376,VALID,234,VALID,0.43125,
2009-05-23, 03:20:04,VALID,1002.31,VALID,0,VALID,79.9507,VALID,0,VALID,25.3779,VALID,326,VALID,0.307031,
2009-05-23, 03:21:04,VALID,1002.35,VALID,0,VALID,80.1643,VALID,0,VALID,25.337,VALID,317,VALID,0.298438,
2009-05-23, 03:22:04,VALID,1002.37,VALID,0,VALID,79.9507,VALID,0,VALID,25.339,VALID,304,VALID,0.925781,
2009-05-23, 03:23:04,VALID,1002.36,VALID,0,VALID,80.1185,VALID,0,VALID,25.337,VALID,335,VALID,0.240625,
2009-05-23, 03:24:04,VALID,1002.36,VALID,0,VALID,80.0346,VALID,0,VALID,25.3176,VALID,352,VALID,0.817187,
2009-05-23, 03:25:04,VALID,1002.38,VALID,0,VALID,80.1109,VALID,0,VALID,25.339,VALID,349,VALID,1.03945,
2009-05-23, 03:26:04,VALID,1002.35,VALID,0,VALID,80.2558,VALID,0,VALID,25.3409,VALID,352,VALID,0.714844,
2009-05-23, 03:27:04,VALID,1002.37,VALID,0,VALID,80.3016,VALID,0,VALID,25.3,VALID,312,VALID,0.642578,
2009-05-23, 03:28:04,VALID,1002.4,VALID,0,VALID,80.5305,VALID,0,VALID,25.2806,VALID,345,VALID,0.475,
2009-05-23, 03:29:04,VALID,1002.41,VALID,0,VALID,80.7746,VALID,0,VALID,25.2611,VALID,337,VALID,0.639844,
2009-05-23, 03:30:04,VALID,1002.41,VALID,0,VALID,80.8738,VALID,0,VALID,25.2007,VALID,302,VALID,0.528125,
2009-05-23, 03:31:04,VALID,1002.41,VALID,0,VALID,81.0263,VALID,0,VALID,25.1813,VALID,281,VALID,0.0734375,
2009-05-23, 03:32:04,VALID,1002.4,VALID,0,VALID,81.034,VALID,0,VALID,25.1637,VALID,281,VALID,0.489062,
2009-05-23, 03:33:04,VALID,1002.37,VALID,0,VALID,81.156,VALID,0,VALID,25.1442,VALID,281,VALID,0.00195313,
2009-05-23, 03:34:04,VALID,1002.36,VALID,0,VALID,81.2018,VALID,0,VALID,25.1248,VALID,281,VALID,0,
2009-05-23, 03:35:04,VALID,1002.34,VALID,0,VALID,81.3773,VALID,0,VALID,25.1053,VALID,281,VALID,0.0046875,
2009-05-23, 03:36:04,VALID,1002.36,VALID,0,VALID,81.6443,VALID,0,VALID,25.045,VALID,282,VALID,0,
2009-05-23, 03:37:04,VALID,1002.36,VALID,0,VALID,81.7816,VALID,0,VALID,25.0274,VALID,282,VALID,0.0636719,
2009-05-23, 03:38:04,VALID,1002.37,VALID,0,VALID,81.774,VALID,0,VALID,25.0079,VALID,282,VALID,0,
2009-05-23, 03:39:04,VALID,1002.37,VALID,0,VALID,81.9647,VALID,0,VALID,24.9885,VALID,285,VALID,0.740234,
2009-05-23, 03:40:04,VALID,1002.32,VALID,0,VALID,81.9342,VALID,0,VALID,24.9866,VALID,280,VALID,0.142578,
2009-05-23, 03:41:04,VALID,1002.33,VALID,0,VALID,81.8045,VALID,0,VALID,24.9671,VALID,280,VALID,0.245703,
2009-05-23, 03:42:04,VALID,1002.34,VALID,0,VALID,82.0181,VALID,0,VALID,24.969,VALID,280,VALID,0.0160156,
2009-05-23, 03:43:04,VALID,1002.33,VALID,0,VALID,82.0181,VALID,0,VALID,24.969,VALID,280,VALID,0.262109,
2009-05-23, 03:44:04,VALID,1002.33,VALID,0,VALID,82.2546,VALID,0,VALID,24.9282,VALID,281,VALID,0.0855469,